Regional Weather Roundup
Issued by NWS

Home | Current Version | Previous Version | Graphics & Text | Print | Product List | Glossary On
Versions: 1 2 3 4 5 6 7 8 9 10 11 12 13 14 15 16 17 18 19 20 21 22 23 24 25 26 27 28 29 30 31 32 33 34 35 36 37 38 39 40 41 42 43 44 45 46 47 48 49 50
000
ASUS43 KFSD 260210
RWRSD

WEATHER ROUNDUP FOR SOUTH DAKOTA
NATIONAL WEATHER SERVICE SIOUX FALLS SD
800 PM CST SAT FEB 25 2017

NOTE: "FAIR" INDICATES FEW OR NO CLOUDS BELOW 12,000 FEET WITH NO
SIGNIFICANT WEATHER AND/OR OBSTRUCTIONS TO VISIBILITY.


SDZ001>005-009-010-012>017-260300-
NORTHWEST AND NORTH CENTRAL SOUTH DAKOTA

CITY           SKY/WX    TMP DP  RH WIND       PRES   REMARKS
BUFFALO          N/A     24  20  84 W12       29.61S WCI  13
FAITH            N/A     28  20  71 SW12      29.69F WCI  18
MOBRIDGE       CLEAR     25  19  78 SE5       29.68F WCI  19
$$

SDZ012>016-024>037-041>051-057-063-072>074-260300-
SOUTHWEST AND SOUTH CENTRAL SOUTH DAKOTA

CITY           SKY/WX    TMP DP  RH WIND       PRES   REMARKS
RAPID CTY ARPT CLEAR     20  16  84 W7        29.70R WCI  11
PIERRE         CLEAR     26  21  81 SE3       29.74F
CUSTER         CLEAR     12   5  73 W5        29.61S WCI   4
ELLSWORTH AFB  PTCLDY    25  23  92 NW5       29.69S WCI  19
PHILIP         PTCLDY    28  20  71 CALM      29.74F
PINE RIDGE     CLEAR     19  10  68 W3        29.74F
SPEARFISH      MOCLDY    27  14  59 W7        29.68S WCI  19
WINNER         MOCLDY    27  20  75 SW10      29.77F WCI  17
$$

SDZ004>011-016>023-039-040-260300-
NORTHEAST SOUTH DAKOTA

CITY           SKY/WX    TMP DP  RH WIND       PRES   REMARKS
ABERDEEN       PTCLDY    25  20  81 N5        29.75F WCI  19
WATERTOWN      FLURRIES  26  22  84 S14       29.72F WCI  14
BROOKINGS      CLOUDY    24  19  81 S10       29.76F WCI  14
SISSETON         N/A     29  27  92 N6        29.74F WCI  23
$$

SDZ017-020-022-023-036>040-048>070-260300-
SOUTHEAST SOUTH DAKOTA

CITY           SKY/WX    TMP DP  RH WIND       PRES   REMARKS
SIOUX FALLS    CLOUDY    24  18  77 S10       29.81F WCI  14
HURON          MOCLDY    29  22  75 S8        29.76F WCI  21
CHAMBERLAIN    CLOUDY    31  27  82 SW9       29.78R WCI  23
MITCHELL       CLOUDY    27  21  78 S9        29.80F WCI  18
YANKTON        CLEAR     25  16  68 S5        29.83F WCI  19
$$

ABBREVIATIONS USED IN REMARKS
   TC - TEMPERATURE IN CELSIUS
  WCI - WIND CHILL INDEX
   HX - HEAT INDEX
  VSB - VISIBILITY




USA.gov is the U.S. government's official web portal to all federal, state and local government web resources and services.